Tracking 29528 objects as of 12-Sep-2024
HD Live streaming from Space Station
objects crossing your sky now

OBJECT P

Track OBJECT P now!
10-day predictions


NORAD ID: 54695
Int'l Code: 2022-167P
Perigee: 514.6 km
Apogee: 530.3 km
Inclination: 97.6 °
Period: 94.9 minutes
Semi major axis: 6893 km
RCS: Unknown
Launch date: December 9, 2022
Source: People's Republic of China (PRC)
Launch site: Yellow Sea Launch Area, China (YSLA)
Your satellite tracking list
Your tracking list is empty




NASA's NSSDC Master Catalog

Two Line Element Set (TLE):
1 54695U 22167P   24255.92628413  .00023606  00000-0  11981-2 0  9999
2 54695  97.6227  38.4583 0011387 208.5667 151.4943 15.16859258 97260
Source of the keplerian elements: AFSPC